Flag for Australia Weather past 2 weeks in Perth, Western Australia, Australia

Now
64 °F

Passing clouds.


Feels Like: 64 °F
Forecast: 51 / 65 °F
Wind: 8 mph from Southwest

Location: Belmont Perth Airport

Current Time: May 26, 2015 at 4:57:23 PM

Latest Report: May 26, 2015 at 4:30 PM


Visibility: N/A

Pressure: 30.18 "Hg

Humidity: 60%

Dew point: 50 °F

Location of PerthLocation

Historic Weather in Perth — Graph

°F

Perth temperature yesterday

Maximum temperature yesterday: 72 °F (at 1:30 PM)
Minimum temperature yesterday: 48 °F (at 10:00 PM)
Average temperature yesterday: 58 °F

Past Weeks' High & Low Weather Summary

 TemperatureHumidityPressure
High79 °F (May 14, 2:30 PM)100% (May 17, 2:30 AM)30.42 "Hg (May 17, 2:30 AM)
Low43 °F (May 23, 5:00 AM)7% (May 16, 1:00 AM)29.62 "Hg (May 17, 12:30 PM)
Average60 °F63%30.15 "Hg
* Reported May 11 3:00 PM — May 26 3:30 PM, Perth, Weather by CustomWeather, © 2015

Note: Actual official high and low records may vary slightly from our data, if they occured in-between our weather recording intervals... More about our weather records

Advertising

Perth weather history for previous 24 hours

 ConditionsComfort  
Time TempWeatherWind HumidityBarometerVisibility
3:30 PM
Tue, May 26
66 °FPartly sunny.10 mph60%30.18 "HgN/A
3:00 PM68 °FBroken clouds.7 mph53%30.18 "HgN/A
2:30 PM66 °FPartly sunny.6 mph56%30.18 "HgN/A
2:00 PM66 °FBroken clouds.12 mph60%30.18 "HgN/A
1:30 PM66 °FScattered showers. Partly sunny.12 mph60%30.18 "HgN/A
1:00 PM68 °FScattered showers. Broken clouds.10 mph56%30.18 "HgN/A
12:30 PM68 °FScattered showers. Partly sunny.8 mph56%30.21 "HgN/A
12:00 PM66 °FScattered showers. Scattered clouds.6 mph60%30.21 "HgN/A
11:30 AM66 °FScattered showers. Partly sunny.9 mph60%30.21 "HgN/A
10:30 AM63 °FSprinkles. Scattered clouds.7 mph68%30.24 "HgN/A
10:00 AM61 °FScattered showers. Scattered clouds.3 mph72%30.24 "HgN/A
9:30 AM59 °FPassing clouds.7 mph72%30.24 "HgN/A
9:00 AM55 °FPassing clouds.7 mph77%30.21 "HgN/A
8:30 AM52 °FPassing clouds.8 mph88%30.21 "HgN/A
8:00 AM50 °FPassing clouds.7 mph88%30.21 "HgN/A
7:30 AM48 °FPassing clouds.8 mph94%30.21 "HgN/A
7:00 AM46 °FPassing clouds.7 mph93%30.21 "HgN/A
6:30 AM46 °FPassing clouds.7 mph93%30.21 "HgN/A
6:00 AM48 °FPassing clouds.5 mph94%30.18 "HgN/A
5:30 AM48 °FPassing clouds.6 mph94%30.18 "HgN/A
5:00 AM48 °FPassing clouds.7 mph94%30.18 "HgN/A
4:30 AM48 °FPassing clouds.7 mph94%30.18 "HgN/A
4:00 AM48 °FClear.7 mph94%30.18 "Hg10 mi
3:30 AM50 °FPassing clouds.6 mph88%30.18 "HgN/A
3:00 AM50 °FClear.6 mph94%30.18 "Hg10 mi
2:30 AM52 °FPassing clouds.5 mph88%30.18 "HgN/A
2:00 AM50 °FPartly cloudy.6 mph94%30.18 "HgN/A
1:30 AM48 °FClear.5 mph100%30.18 "Hg10 mi
1:00 AM48 °FClear.6 mph94%30.18 "Hg10 mi
12:30 AM46 °FClear.6 mph93%30.18 "Hg10 mi
12:00 AM48 °FClear.No wind87%30.18 "Hg10 mi
11:30 PM
Mon, May 25
48 °FPassing clouds.No wind94%30.21 "HgN/A
11:00 PM50 °FPassing clouds.6 mph88%30.18 "HgN/A
10:30 PM50 °FPassing clouds.5 mph88%30.21 "HgN/A
10:00 PM48 °FPassing clouds.5 mph94%30.21 "HgN/A
9:30 PM50 °FClear.No wind88%30.18 "Hg10 mi
9:00 PM52 °FClear.No wind82%30.18 "Hg10 mi
8:30 PM52 °FPassing clouds.2 mph82%30.18 "HgN/A
8:00 PM55 °FPassing clouds.5 mph77%30.18 "HgN/A
7:30 PM57 °FClear.7 mph72%30.18 "Hg10 mi
7:00 PM59 °FClear.7 mph68%30.15 "Hg10 mi
6:30 PM61 °FClear.7 mph59%30.15 "Hg10 mi
6:00 PM63 °FClear.8 mph56%30.15 "Hg10 mi
5:30 PM64 °FClear.9 mph49%30.15 "Hg10 mi
5:00 PM66 °FClear.13 mph46%30.12 "Hg10 mi
4:30 PM68 °FClear.13 mph40%30.12 "Hg10 mi
4:00 PM70 °FSunny.12 mph43%30.12 "Hg10 mi
Weather by CustomWeather, © 2015

See weather overviewHow to use our weather pages